1501358401.23,43681,21.13,74412.0,5.37,-22.31,-22.63,0,*73
1501358402.45,43682,21.13,74416.0,5.37,-22.31,-22.53,0,*73
1501358403.67,43683,21.13,74414.3,5.35,-22.03,-22.07,0,*70
1501358404.9,43684,21.13,74414.0,5.35,-21.93,-22.03,0,*79
1501358406.13,43685,21.13,74412.5,5.37,-22.11,-22.31,0,*72
1501358407.35,43686,21.13,74412.8,5.37,-22.21,-22.53,0,*76
1501358408.56,43687,21.13,74412.3,5.37,-22.37,-22.67,0,*77
1501358409.78,43688,21.13,74410.8,5.35,-22.37,-22.57,0,*79
1501358411.01,43689,21.13,74410.8,5.35,-22.37,-22.67,0,*7B
1501358412.24,43690,21.13,74410.3,5.35,-22.53,-22.83,0,*7B
1501358413.47,43691,21.06,74404.8,5.35,-22.53,-22.83,0,*7A
1501358414.7,43692,21.13,74408.3,5.35,-22.57,-22.83,0,*7D
1501358415.93,43693,21.13,74410.0,5.35,-22.41,-22.53,0,*76
1501358417.16,43694,21.13,74404.3,5.35,-22.37,-22.67,0,*77
1501358418.39,43695,21.13,74406.0,5.35,-22.57,-22.83,0,*7A
1501358419.59,43696,21.13,74410.3,5.33,-22.57,-22.87,0,*7B
1501358420.82,43697,21.06,74406.0,5.35,-22.57,-22.87,0,*7C
1501358422.02,43698,21.13,74406.5,5.33,-22.67,-22.87,0,*76
1501358423.25,43699,21.13,74404.8,5.35,-22.57,-22.87,0,*72
1501358424.5,43700,21.13,74404.8,5.35,-22.53,-22.73,0,*7C
1501358425.7,43701,21.13,74408.0,5.33,-22.57,-22.83,0,*70
1501358426.9,43702,21.06,74404.3,5.33,-22.57,-22.87,0,*77
1501358428.1,43703,21.06,74402.0,5.33,-22.67,-22.87,0,*75
1501358429.32,43704,21.13,74404.0,5.33,-22.73,-22.83,0,*73
1501358430.51,43705,21.06,74402.8,5.33,-22.37,-22.67,0,*78
1501358431.79,43706,21.13,74410.8,5.31,-22.47,-22.77,0,*7F
1501358433.01,43707,21.13,74406.5,5.31,-22.27,-22.41,0,*7D
1501358434.26,43708,21.13,74404.0,5.31,-22.31,-22.63,0,*75
1501358435.51,43709,21.13,74406.5,5.31,-22.41,-22.73,0,*72
1501358436.76,43710,21.13,74404.0,5.31,-22.31,-22.63,0,*7C
1501358438.01,43711,21.13,74404.3,5.31,-22.57,-22.77,0,*78
1501358439.24,43712,21.13,74404.5,5.31,-22.57,-22.87,0,*74
1501358440.49,43713,21.13,74406.8,5.31,-22.57,-22.77,0,*7A
1501358441.74,43714,21.13,74410.0,5.31,-22.63,-22.77,0,*7A
1501358443.02,43715,21.13,74408.0,5.31,-22.47,-22.73,0,*79
1501358444.24,43716,21.13,74410.5,5.31,-22.57,-22.87,0,*70
1501358445.48,43717,21.13,74410.5,5.31,-22.57,-22.93,0,*74
1501358446.7,43718,21.13,74410.8,5.29,-22.73,-22.93,0,*74
1501358447.93,43719,21.06,74410.0,5.31,-22.57,-22.87,0,*7F
1501358449.14,43720,21.13,74410.0,5.29,-22.73,-22.87,0,*7A
1501358450.34,43721,21.13,74404.8,5.29,-22.41,-22.57,0,*77
1501358451.54,43722,21.13,74404.5,5.29,-22.41,-22.63,0,*73
1501358452.78,43723,21.13,74404.8,5.29,-22.47,-22.73,0,*75
1501358454.06,43724,21.13,74406.5,5.31,-22.47,-22.77,0,*7F
1501358455.26,43725,21.13,74406.0,5.29,-22.41,-22.63,0,*74
1501358456.51,43726,21.13,74410.5,5.29,-22.47,-22.73,0,*70
1501358457.73,43727,21.13,74408.5,5.29,-22.57,-22.73,0,*70
1501358458.93,43728,21.06,74406.5,5.29,-22.41,-22.63,0,*79
1501358460.13,43729,21.13,74410.8,5.29,-22.41,-22.63,0,*78
1501358461.32,43730,21.13,74410.5,5.25,-22.63,-22.83,0,*72
1501358462.55,43731,21.13,74410.0,5.25,-22.63,-22.77,0,*78
1501358463.75,43732,21.13,74410.0,5.25,-22.53,-22.67,0,*79
1501358465.0,43733,21.13,74410.3,5.29,-22.47,-22.77,0,*70
1501358466.2,43734,21.13,74410.8,5.23,-22.67,-22.87,0,*70
1501358467.43,43735,21.13,74404.8,5.25,-22.47,-22.63,0,*7F
1501358468.63,43736,21.13,74404.8,5.29,-22.41,-22.57,0,*71
1501358469.85,43737,21.13,74410.8,5.23,-22.53,-22.73,0,*7F
1501358471.08,43738,21.13,74408.0,5.25,-22.47,-22.63,0,*72
1501358472.3,43739,21.13,74410.0,5.23,-22.53,-22.73,0,*71
1501358473.53,43740,21.13,74410.5,5.23,-22.53,-22.73,0,*7F
1501358474.73,43741,21.13,74410.0,5.25,-22.53,-22.67,0,*7D
1501358475.93,43742,21.13,74408.0,5.23,-22.67,-22.83,0,*75
1501358477.16,43743,21.13,74408.3,5.25,-22.47,-22.67,0,*7A
1501358478.4,43744,21.13,74406.5,5.23,-22.31,-22.31,0,*79
1501358479.6,43745,21.13,74408.0,5.23,-22.41,-22.57,0,*7F
1501358480.8,43746,21.13,74406.8,5.23,-22.53,-22.67,0,*7C
1501358482.02,43747,21.13,74410.5,5.25,-22.31,-22.37,0,*7A
1501358483.22,43748,21.13,74410.8,5.23,-22.41,-22.57,0,*72
1501358484.45,43749,21.13,74410.3,5.25,-22.47,-22.53,0,*77
1501358485.65,43750,21.13,74408.3,5.23,-22.37,-22.67,0,*79
1501358486.85,43751,21.13,74408.8,5.25,-22.37,-22.63,0,*7A
1501358488.07,43752,21.13,74414.3,5.23,-22.53,-22.73,0,*7C
1501358489.3,43753,21.13,74406.5,5.25,-22.31,-22.53,0,*7D
1501358490.55,43754,21.13,74410.0,5.23,-22.21,-22.31,0,*79
1501358491.77,43755,21.13,74410.0,5.21,-22.41,-22.57,0,*7C
1501358493.02,43756,21.13,74410.8,5.21,-22.53,-22.73,0,*7A
1501358494.24,43757,21.13,74406.5,5.23,-22.53,-22.73,0,*79
1501358495.44,43758,21.13,74408.5,5.23,-22.41,-22.53,0,*77
1501358496.65,43759,21.13,74410.8,5.23,-22.41,-22.73,0,*74
1501358497.85,43760,21.13,74408.8,5.23,-22.53,-22.67,0,*78
1501358499.05,43761,21.13,74406.5,5.23,-22.41,-22.57,0,*79
1501358500.27,43762,21.13,74410.5,5.21,-22.53,-22.67,0,*78
1501358501.47,43763,21.13,74410.5,5.23,-22.41,-22.57,0,*7B
1501358502.74,43764,21.13,74408.3,5.21,-22.21,-22.31,0,*78
1501358503.98,43765,21.13,74410.8,5.21,-22.31,-22.41,0,*7F
1501358505.2,43766,21.13,74404.3,5.21,-22.41,-22.67,0,*7F
1501358506.42,43767,21.06,74406.8,5.21,-22.41,-22.67,0,*7E
1501358507.62,43768,21.06,74408.0,5.23,-22.37,-22.53,0,*75
1501358508.86,43769,21.13,74412.5,5.21,-22.31,-22.53,0,*70
1501358510.11,43770,21.06,74406.5,5.21,-22.31,-22.53,0,*78
1501358511.33,43771,21.13,74410.3,5.21,-22.41,-22.57,0,*7A
1501358512.55,43772,21.13,74404.0,5.21,-22.53,-22.67,0,*79
1501358513.77,43773,21.06,74400.5,5.21,-22.41,-22.57,0,*78
1501358515.0,43774,21.13,74402.3,5.19,-22.47,-22.63,0,*75
1501358516.22,43775,21.13,74404.8,5.21,-22.37,-22.57,0,*7F
1501358517.44,43776,21.13,74408.3,5.21,-22.37,-22.53,0,*78
1501358518.67,43777,21.13,74404.8,5.21,-21.93,-22.03,0,*71
1501358519.91,43778,21.13,74404.0,5.21,-22.03,-22.17,0,*71
1501358521.13,43779,21.13,74402.8,5.19,-22.31,-22.41,0,*79
1501358522.35,43780,21.06,74396.0,5.21,-22.37,-22.67,0,*76
1501358523.57,43781,21.13,74392.8,5.21,-22.41,-22.67,0,*76
1501358524.77,43782,21.13,74392.8,5.19,-22.63,-22.87,0,*70
1501358525.99,43783,21.13,74398.5,5.21,-22.53,-22.67,0,*77
1501358527.21,43784,21.13,74398.0,5.21,-22.41,-22.67,0,*73
1501358528.45,43785,21.13,74398.3,5.21,-22.57,-22.73,0,*70
1501358529.68,43786,21.13,74400.5,5.21,-22.53,-22.83,0,*78
1501358530.91,43787,21.13,74396.3,5.19,-22.53,-22.73,0,*7D
1501358532.12,43788,21.13,74400.3,5.21,-22.41,-22.53,0,*78
1501358533.34,43789,21.13,74406.0,5.21,-22.41,-22.57,0,*7D
1501358534.59,43790,21.13,74414.8,5.21,-22.31,-22.57,0,*72
1501358535.86,43791,21.06,74404.8,5.21,-22.21,-22.17,0,*76
1501358537.09,43792,21.06,74398.3,5.19,-21.87,-22.07,0,*70
1501358538.34,43793,21.13,74406.3,5.21,-22.03,-22.17,0,*74
1501358539.58,43794,21.13,74400.0,5.21,-22.03,-22.17,0,*73
1501358540.83,43795,21.13,74396.5,5.21,-21.87,-21.93,0,*72
1501358542.08,43796,21.13,74398.8,5.21,-21.87,-22.07,0,*7F
1501358543.35,43797,21.13,74398.8,5.21,-22.21,-22.21,0,*75
1501358544.59,43798,21.06,74396.5,5.21,-22.07,-22.21,0,*7E
1501358545.86,43799,21.13,74400.0,5.21,-22.17,-22.31,0,*7F
1501358547.08,43800,21.13,74398.5,5.21,-22.41,-22.57,0,*73
1501358548.36,43801,21.13,74396.8,5.21,-22.21,-22.31,0,*74
1501358549.58,43802,21.13,74394.5,5.21,-21.93,-22.03,0,*7C
1501358550.79,43803,21.13,74392.8,5.21,-22.03,-22.07,0,*73
1501358552.04,43804,21.06,74392.3,5.23,-22.31,-22.31,0,*72
1501358553.27,43805,21.13,74402.3,5.23,-22.03,-22.17,0,*76
1501358554.5,43806,21.13,74400.5,5.25,-22.17,-22.27,0,*75
1501358555.71,43807,21.13,74402.8,5.23,-22.03,-22.21,0,*71
1501358556.96,43808,21.13,74402.8,5.23,-22.21,-22.21,0,*7E
1501358558.18,43809,21.13,74400.5,5.25,-21.97,-22.11,0,*74
1501358559.41,43810,21.13,74406.5,5.23,-22.41,-22.47,0,*71
1501358560.66,43811,21.13,74408.0,5.23,-22.31,-22.31,0,*76
1501358561.87,43812,21.13,74406.5,5.23,-22.07,-22.21,0,*71
1501358563.1,43813,21.13,74404.3,5.25,-21.73,-21.83,0,*7D
1501358564.29,43814,21.13,74408.0,5.25,-21.73,-21.73,0,*75
1501358565.51,43815,21.13,74404.8,5.25,-21.57,-21.73,0,*72
1501358566.76,43816,21.13,74406.8,5.25,-21.83,-21.97,0,*72
1501358568.01,43817,21.13,74404.8,5.29,-21.83,-21.97,0,*7F
1501358569.23,43818,21.13,74406.0,5.29,-21.93,-21.97,0,*71
1501358570.43,43819,21.13,74406.5,5.25,-22.27,-22.27,0,*78
1501358571.63,43820,21.13,74404.8,5.25,-22.27,-22.53,0,*71
1501358572.83,43821,21.13,74406.0,5.25,-22.27,-22.37,0,*72
1501358574.03,43822,21.06,74406.0,5.23,-22.37,-22.53,0,*74
1501358575.23,43823,21.13,74404.8,5.25,-22.37,-22.67,0,*74
1501358576.46,43824,21.13,74404.8,5.25,-22.37,-22.47,0,*71
1501358577.69,43825,21.13,74406.5,5.25,-22.17,-22.37,0,*75
1501358578.92,43826,21.13,74408.8,5.25,-22.31,-22.53,0,*70
1501358580.14,43827,21.13,74406.3,5.25,-22.17,-22.37,0,*77
1501358581.34,43828,21.13,74404.5,5.23,-22.27,-22.53,0,*7F
1501358582.54,43829,21.06,74406.8,5.25,-22.37,-22.53,0,*79
1501358583.74,43830,21.13,74404.8,5.23,-22.37,-22.57,0,*73
1501358584.96,43831,21.06,74406.0,5.23,-22.31,-22.41,0,*73
1501358586.16,43832,21.13,74408.3,5.25,-22.37,-22.53,0,*73
1501358587.39,43833,21.06,74406.0,5.25,-22.27,-22.47,0,*76
1501358588.65,43834,21.06,74404.3,5.25,-22.21,-22.17,0,*72
1501358589.84,43835,21.13,74406.0,5.23,-22.03,-22.07,0,*74
1501358591.04,43836,21.06,74406.3,5.25,-22.03,-22.27,0,*73
1501358592.24,43837,21.13,74404.8,5.25,-22.37,-22.53,0,*76
1501358593.47,43838,21.13,74406.8,5.25,-22.31,-22.53,0,*7F
1501358594.69,43839,21.06,74404.3,5.23,-22.31,-22.53,0,*78
1501358595.89,43840,21.13,74404.3,5.25,-22.37,-22.53,0,*76
1501358597.12,43841,21.13,74406.5,5.25,-22.17,-22.37,0,*77
1501358598.32,43842,21.06,74402.5,5.25,-22.27,-22.37,0,*77
1501358599.51,43843,21.13,74404.8,5.25,-22.27,-22.41,0,*77
1501358600.77,43844,21.06,74404.8,5.25,-22.31,-22.47,0,*71
1501358601.97,43845,21.13,74406.0,5.25,-22.37,-22.63,0,*70
1501358603.2,43846,21.13,74404.8,5.23,-22.31,-22.53,0,*70
1501358604.43,43847,21.13,74408.8,5.25,-22.17,-22.27,0,*70
1501358605.63,43848,21.06,74404.3,5.25,-22.27,-22.37,0,*7D
1501358606.88,43849,21.13,74404.5,5.25,-22.31,-22.47,0,*7C
1501358608.1,43850,21.06,74406.3,5.23,-22.17,-22.41,0,*70
1501358609.3,43851,21.06,74404.5,5.25,-22.37,-22.53,0,*76
1501358610.53,43852,21.06,74406.0,5.23,-22.21,-22.53,0,*74
1501358611.74,43853,21.06,74404.8,5.23,-22.31,-22.41,0,*77
1501358613.0,43854,21.13,74404.8,5.23,-22.21,-22.31,0,*76
1501358614.21,43855,21.13,74410.0,5.23,-22.31,-22.41,0,*71
1501358615.42,43856,21.06,74408.8,5.23,-22.07,-22.21,0,*71
1501358616.65,43857,21.06,74406.8,5.25,-22.03,-22.17,0,*77
1501358617.85,43858,21.06,74404.0,5.23,-22.41,-22.53,0,*78
1501358619.1,43859,21.06,74404.5,5.23,-22.31,-22.31,0,*7A
1501358620.31,43860,21.06,74406.0,5.23,-22.21,-22.41,0,*76
1501358621.51,43861,21.06,74406.8,5.23,-22.37,-22.53,0,*73
1501358622.76,43862,21.13,74406.3,5.23,-22.17,-22.21,0,*77
1501358623.98,43863,21.06,74404.3,5.23,-22.31,-22.41,0,*74
1501358625.23,43864,21.06,74406.0,5.25,-22.17,-22.31,0,*76
1501358626.43,43865,21.06,74408.3,5.23,-22.41,-22.67,0,*71
1501358627.65,43866,21.13,74412.3,5.23,-22.41,-22.73,0,*77
1501358628.84,43867,21.06,74406.8,5.23,-22.41,-22.57,0,*70
1501358630.04,43868,21.06,74410.3,5.23,-22.41,-22.57,0,*7F
1501358631.24,43869,21.06,74408.3,5.23,-22.37,-22.53,0,*7B
1501358632.45,43870,21.06,74410.8,5.23,-22.31,-22.41,0,*76
1501358633.67,43871,21.06,74412.5,5.23,-22.31,-22.41,0,*77
1501358634.88,43872,21.06,74410.0,5.23,-22.31,-22.41,0,*74
1501358636.08,43873,21.06,74412.0,5.23,-22.41,-22.67,0,*76
1501358637.33,43874,21.06,74410.8,5.23,-22.21,-22.31,0,*74
1501358638.55,43875,21.06,74412.3,5.23,-22.31,-22.57,0,*74
1501358639.77,43876,21.06,74410.5,5.23,-22.07,-22.17,0,*76
1501358641.02,43877,21.06,74410.3,5.23,-22.21,-22.31,0,*77
1501358642.23,43878,21.06,74408.5,5.23,-22.31,-22.41,0,*7E
1501358643.49,43879,21.06,74410.3,5.23,-22.17,-22.17,0,*78
1501358644.71,43880,21.06,74410.8,5.23,-22.31,-22.41,0,*79
1501358645.92,43881,21.06,74406.3,5.23,-22.31,-22.41,0,*78
1501358647.14,43882,21.06,74406.3,5.23,-22.07,-22.21,0,*78
1501358648.36,43883,21.06,74410.8,5.23,-22.07,-22.17,0,*7C
1501358649.6,43884,21.06,74408.8,5.23,-22.21,-22.21,0,*7A
1501358650.8,43885,21.06,74408.3,5.23,-22.37,-22.57,0,*7D
1501358652.07,43886,21.06,74408.0,5.21,-22.21,-22.31,0,*7B
1501358653.32,43887,21.06,74408.3,5.21,-22.31,-22.53,0,*7F
1501358654.52,43888,21.06,74406.3,5.23,-22.41,-22.53,0,*75
1501358655.73,43889,21.06,74408.5,5.23,-22.31,-22.41,0,*70
1501358656.95,43890,21.06,74410.5,5.23,-22.53,-22.73,0,*7D
1501358658.18,43891,21.06,74408.0,5.21,-22.37,-22.53,0,*7E
1501358659.4,43892,21.06,74408.3,5.21,-22.37,-22.53,0,*7D
1501358660.65,43893,21.06,74408.3,5.19,-22.47,-22.73,0,*72
1501358661.87,43894,21.06,74412.5,5.21,-22.53,-22.67,0,*7E
1501358663.09,43895,21.06,74412.0,5.21,-22.41,-22.67,0,*7C
1501358664.34,43896,21.06,74408.8,5.21,-22.21,-22.53,0,*7E
1501358665.58,43897,21.06,74408.0,5.21,-22.31,-22.41,0,*7D
1501358666.8,43898,21.06,74408.5,5.19,-22.11,-22.21,0,*7D
1501358668.04,43899,21.06,74404.3,5.21,-22.07,-22.31,0,*71
1501358669.27,43900,21.06,74404.0,5.19,-22.27,-22.47,0,*78
1501358670.51,43901,21.06,74410.3,5.21,-22.07,-22.31,0,*71
1501358671.73,43902,21.06,74406.3,5.21,-21.77,-22.03,0,*77
1501358672.95,43903,21.06,74408.5,5.21,-22.03,-22.03,0,*76
1501358674.22,43904,21.06,74404.5,5.21,-22.17,-22.21,0,*74
1501358675.46,43905,21.06,74406.3,5.21,-22.31,-22.41,0,*77
1501358676.67,43906,21.06,74408.5,5.19,-22.37,-22.63,0,*79
1501358677.89,43907,21.06,74404.3,5.21,-22.37,-22.57,0,*74
1501358679.1,43908,21.06,74408.3,5.21,-22.41,-22.67,0,*79
1501358680.3,43909,21.06,74404.0,5.19,-22.11,-22.37,0,*73
1501358681.54,43910,21.06,74404.5,5.21,-22.07,-22.31,0,*71
1501358682.82,43911,21.06,74406.3,5.21,-22.17,-22.31,0,*71
1501358684.04,43912,21.06,74406.0,5.21,-22.37,-22.57,0,*70
1501358685.24,43913,21.06,74404.3,5.19,-22.41,-22.57,0,*7B
1501358686.48,43914,21.06,74404.0,5.21,-22.41,-22.77,0,*75
1501358687.74,43915,21.06,74404.8,5.19,-22.47,-22.77,0,*79
1501358688.98,43916,21.06,74404.5,5.21,-22.37,-22.73,0,*72
1501358690.21,43917,21.06,74412.0,5.19,-22.47,-22.63,0,*7E
1501358691.46,43918,21.06,74412.3,5.21,-22.31,-22.53,0,*78
1501358692.69,43919,21.06,74410.3,5.19,-22.47,-22.63,0,*70
1501358693.89,43920,21.06,74406.3,5.19,-22.37,-22.37,0,*7C
1501358695.09,43921,21.06,74408.5,5.19,-22.37,-22.57,0,*7B
1501358696.34,43922,21.06,74408.8,5.19,-22.47,-22.73,0,*79
1501358697.62,43923,21.06,74408.5,5.17,-22.47,-22.77,0,*72
1501358698.85,43924,21.06,74408.8,5.17,-22.37,-22.57,0,*70
1501358700.12,43925,21.06,74410.3,5.17,-22.47,-22.77,0,*74
1501358701.4,43926,21.06,74410.3,5.17,-22.47,-22.77,0,*77
1501358702.62,43927,21.06,74408.0,5.17,-22.37,-22.37,0,*75
1501358703.87,43928,21.06,74410.3,5.17,-22.21,-22.27,0,*7C
1501358705.07,43929,21.06,74410.5,5.15,-22.27,-22.27,0,*79
1501358706.32,43930,21.06,74410.3,5.17,-22.21,-22.27,0,*75
1501358707.57,43931,21.06,74406.8,5.17,-21.97,-22.11,0,*7F
1501358708.82,43932,21.06,74410.0,5.17,-21.83,-22.11,0,*79
1501358710.07,43933,21.06,74410.8,5.19,-21.67,-21.83,0,*74
1501358711.32,43934,21.06,74410.0,5.19,-21.67,-21.97,0,*76
1501358712.55,43935,21.06,74408.3,5.19,-21.77,-21.83,0,*73
1501358713.77,43936,21.06,74406.5,5.23,-21.83,-21.93,0,*73
1501358715.01,43937,21.06,74408.0,5.21,-22.07,-22.21,0,*75
1501358716.21,43938,21.06,74410.8,5.19,-21.93,-22.11,0,*7C
1501358717.45,43939,21.06,74410.3,5.21,-22.07,-22.17,0,*7E
1501358718.69,43940,21.06,74410.3,5.21,-22.31,-22.41,0,*76
1501358719.89,43941,21.06,74410.3,5.19,-22.27,-22.63,0,*7B
1501358721.14,43942,21.06,74408.0,5.21,-22.31,-22.53,0,*77
1501358722.38,43943,21.06,74406.8,5.21,-22.31,-22.57,0,*72
1501358723.58,43944,21.06,74408.0,5.19,-22.11,-22.11,0,*7E
1501358724.8,43945,21.06,74404.3,5.19,-21.97,-22.11,0,*72
1501358726.04,43946,21.06,74402.3,5.19,-22.37,-22.47,0,*7B
1501358727.24,43947,21.06,74402.3,5.19,-22.37,-22.63,0,*7C
1501358728.46,43948,21.06,74400.3,5.19,-22.41,-22.73,0,*73
1501358729.68,43949,21.06,74400.0,5.21,-22.53,-22.67,0,*7F
1501358730.94,43950,21.06,74402.0,5.19,-22.47,-22.77,0,*78
1501358732.17,43951,21.06,74400.5,5.19,-22.57,-22.77,0,*78
1501358733.38,43952,21.06,74404.8,5.19,-22.57,-22.63,0,*7E
1501358734.61,43953,21.06,74406.8,5.19,-22.47,-22.63,0,*7E
1501358735.84,43954,21.06,74404.5,5.19,-22.57,-22.77,0,*7D
1501358737.06,43955,21.06,74406.3,5.19,-22.37,-22.73,0,*7E
1501358738.31,43956,21.06,74406.8,5.17,-22.63,-22.77,0,*76
1501358739.54,43957,21.06,74408.0,5.15,-22.31,-22.53,0,*74
1501358740.78,43958,21.06,74404.8,5.17,-22.41,-22.73,0,*7C
1501358742.0,43959,21.06,74406.8,5.17,-22.41,-22.57,0,*7B
1501358743.2,43960,21.06,74404.3,5.15,-22.53,-22.83,0,*79
1501358744.48,43961,21.06,74404.3,5.17,-22.47,-22.73,0,*70
1501358745.73,43962,21.06,74404.3,5.17,-22.57,-22.77,0,*76
1501358747.01,43963,21.06,74404.0,5.17,-22.47,-22.73,0,*72
1501358748.26,43964,21.06,74406.8,5.17,-22.57,-22.73,0,*74
1501358749.5,43965,21.06,74400.5,5.17,-22.63,-22.77,0,*76
1501358750.7,43966,21.06,74404.3,5.15,-22.41,-22.67,0,*76
1501358751.9,43967,21.06,74406.0,5.15,-22.41,-22.63,0,*73
1501358753.1,43968,21.06,74404.5,5.15,-22.41,-22.63,0,*7C
1501358754.32,43969,21.06,74402.8,5.15,-22.63,-22.77,0,*78
1501358755.57,43970,21.06,74406.0,5.17,-22.57,-22.73,0,*71
1501358756.82,43971,21.06,74408.5,5.17,-22.11,-22.21,0,*75
1501358758.07,43972,21.06,74406.8,5.17,-22.21,-22.27,0,*73
1501358759.29,43973,21.06,74404.0,5.15,-22.31,-22.41,0,*71
1501358760.53,43974,21.06,74402.3,5.17,-22.21,-22.37,0,*74
1501358761.76,43975,21.06,74404.5,5.15,-22.21,-22.27,0,*76
1501358762.98,43976,21.06,74404.0,5.17,-22.11,-22.11,0,*71
1501358764.2,43977,21.06,74400.8,5.17,-22.41,-22.57,0,*77
1501358765.43,43978,21.06,74402.8,5.15,-22.53,-22.77,0,*7B
1501358766.64,43979,21.06,74400.8,5.15,-22.53,-22.83,0,*71
1501358767.87,43980,21.06,74400.8,5.15,-22.47,-22.67,0,*78
1501358769.12,43981,21.06,74406.3,5.17,-22.47,-22.57,0,*78
1501358770.34,43982,21.06,74404.3,5.15,-22.31,-22.41,0,*7F
1501358771.56,43983,21.06,74406.0,5.15,-22.31,-22.41,0,*7E
1501358772.76,43984,21.06,74406.8,5.15,-22.41,-22.63,0,*7E
1501358773.98,43985,21.06,74406.0,5.15,-22.27,-22.31,0,*78
1501358775.21,43986,21.06,74406.0,5.17,-22.27,-22.37,0,*7F
1501358776.46,43987,21.06,74406.8,5.17,-22.37,-22.47,0,*78
1501358777.68,43988,21.06,74406.3,5.17,-22.11,-22.27,0,*75
1501358778.94,43989,21.06,74406.3,5.15,-22.31,-22.31,0,*73
1501358780.21,43990,21.06,74406.0,5.17,-21.97,-22.21,0,*77
1501358781.48,43991,21.06,74404.0,5.17,-21.83,-21.97,0,*7D
1501358782.7,43992,21.06,74404.8,5.17,-22.11,-22.11,0,*7B
1501358783.91,43993,21.06,74408.5,5.17,-22.07,-22.11,0,*7D
1501358785.14,43994,21.06,74404.5,5.17,-22.11,-22.27,0,*78
1501358786.36,43995,21.06,74404.0,5.17,-21.93,-22.11,0,*75
1501358787.58,43996,21.06,74400.3,5.17,-22.07,-22.11,0,*78
1501358788.8,43997,21.06,74402.5,5.17,-22.41,-22.57,0,*79
1501358790.02,43998,21.06,74398.3,5.17,-22.41,-22.57,0,*76
1501358791.3,43999,21.06,74400.0,5.17,-22.47,-22.77,0,*73
1501358792.54,44000,21.06,74400.5,5.17,-22.63,-22.77,0,*7B
1501358793.74,44001,21.06,74408.3,5.15,-22.67,-22.83,0,*77
1501358795.02,44002,21.06,74404.3,5.17,-22.21,-22.21,0,*7C
1501358796.25,44003,21.06,74406.8,5.17,-22.07,-22.21,0,*79
1501358797.48,44004,21.06,74404.3,5.17,-22.37,-22.57,0,*7C
1501358798.73,44005,21.06,74396.5,5.17,-22.41,-22.47,0,*7D
1501358799.95,44006,21.06,74396.0,5.17,-22.11,-22.27,0,*7D
1501358801.18,44007,21.06,74400.0,5.17,-22.41,-22.63,0,*79
1501358802.4,44008,21.06,74400.5,5.17,-22.41,-22.57,0,*71
1501358803.62,44009,21.06,74400.0,5.17,-22.41,-22.57,0,*70
1501358804.88,44010,21.06,74404.5,5.17,-22.37,-22.47,0,*78
1501358806.15,44011,21.06,74404.5,5.17,-22.47,-22.73,0,*79
1501358807.37,44012,21.06,74404.3,5.15,-22.63,-22.77,0,*7A
1501358808.63,44013,21.06,74400.5,5.17,-22.47,-22.63,0,*7A
1501358809.88,44014,21.06,74404.8,5.17,-22.57,-22.77,0,*79
1501358811.08,44015,21.06,74406.5,5.15,-22.63,-22.63,0,*78
1501358812.28,44016,21.06,74402.0,5.15,-22.53,-22.67,0,*7C
1501358813.54,44017,21.06,74404.0,5.17,-22.47,-22.63,0,*7E
1501358814.74,44018,21.06,74402.8,5.15,-22.53,-22.67,0,*72
1501358815.97,44019,21.06,74404.3,5.15,-22.47,-22.67,0,*76
1501358817.2,44020,21.06,74402.5,5.15,-22.47,-22.53,0,*7B
1501358818.41,44021,21.06,74404.0,5.15,-22.53,-22.63,0,*7C
1501358819.66,44022,21.06,74406.5,5.17,-22.37,-22.47,0,*79
1501358820.87,44023,21.06,74404.5,5.15,-22.53,-22.67,0,*7A
1501358822.09,44024,21.06,74404.8,5.15,-22.31,-22.41,0,*7D
1501358823.32,44025,21.06,74408.5,5.15,-22.47,-22.63,0,*7D
1501358824.52,44026,21.06,74404.0,5.15,-22.27,-22.27,0,*78
1501358825.74,44027,21.06,74408.0,5.15,-22.31,-22.53,0,*7D
1501358826.97,44028,21.06,74406.3,5.15,-22.47,-22.63,0,*70
1501358828.2,44029,21.06,74408.0,5.15,-22.11,-22.17,0,*71
1501358829.43,44030,21.06,74406.8,5.15,-22.11,-22.17,0,*79
1501358830.63,44031,21.06,74408.5,5.15,-22.27,-22.27,0,*7E
1501358831.83,44032,21.06,74406.0,5.15,-22.11,-22.27,0,*78
1501358833.02,44033,21.06,74406.8,5.15,-22.41,-22.41,0,*7C
1501358834.25,44034,21.06,74408.0,5.15,-22.11,-22.17,0,*7D
1501358835.48,44035,21.06,74408.0,5.15,-22.27,-22.31,0,*7D
1501358836.67,44036,21.06,74408.8,5.15,-22.27,-22.41,0,*79
1501358837.9,44037,21.06,74408.0,5.15,-22.17,-22.27,0,*7B
1501358839.16,44038,21.06,74408.3,5.15,-22.17,-22.31,0,*73
1501358840.39,44039,21.06,74408.0,5.15,-22.31,-22.53,0,*72
1501358841.62,44040,21.06,74404.8,5.15,-22.17,-22.27,0,*7B
1501358842.82,44041,21.06,74406.8,5.15,-22.41,-22.63,0,*79
1501358844.02,44042,21.06,74406.3,5.15,-22.53,-22.67,0,*7D
1501358845.22,44043,21.06,74406.8,5.15,-22.41,-22.53,0,*78
1501358846.42,44044,21.06,74406.0,5.15,-22.53,-22.67,0,*7B
1501358847.63,44045,21.06,74404.8,5.15,-22.53,-22.83,0,*70
1501358848.88,44046,21.06,74406.3,5.13,-22.47,-22.53,0,*7D
1501358850.15,44047,21.06,74410.5,5.13,-21.97,-22.17,0,*72
1501358851.35,44048,21.06,74404.8,5.15,-22.11,-22.11,0,*70
1501358852.58,44049,21.06,74404.8,5.15,-22.11,-22.17,0,*77
1501358853.8,44050,21.06,74404.0,5.15,-22.31,-22.53,0,*7D
1501358855.0,44051,21.06,74408.5,5.15,-22.27,-22.27,0,*78
1501358856.2,44052,21.06,74410.3,5.15,-22.11,-22.27,0,*7E
1501358857.42,44053,21.06,74408.3,5.13,-22.03,-22.27,0,*7A
1501358858.67,44054,21.06,74408.5,5.13,-22.27,-22.31,0,*7C
1501358859.9,44055,21.06,74410.0,5.15,-22.47,-22.63,0,*7A
1501358861.12,44056,21.06,74408.8,5.15,-22.31,-22.41,0,*78
1501358862.34,44057,21.06,74404.5,5.15,-21.97,-22.11,0,*73
1501358863.57,44058,21.06,74408.5,5.15,-21.87,-22.03,0,*7E
1501358864.82,44059,21.06,74406.8,5.15,-21.83,-21.97,0,*75
1501358866.04,44060,21.06,74406.8,5.15,-21.57,-21.73,0,*7C
1501358867.29,44061,21.06,74402.8,5.17,-21.83,-21.93,0,*78
1501358868.53,44062,21.06,74406.3,5.17,-21.47,-21.53,0,*7F
1501358869.79,44063,21.06,74404.3,5.17,-21.67,-21.77,0,*7A
1501358871.01,44064,21.06,74406.0,5.17,-22.37,-22.57,0,*7A
1501358872.27,44065,21.06,74406.3,5.17,-22.57,-22.77,0,*7F
1501358873.54,44066,21.06,74404.0,5.17,-22.47,-22.77,0,*7D
1501358874.74,44067,21.06,74406.5,5.15,-22.63,-22.83,0,*73
1501358875.97,44068,21.06,74402.5,5.15,-22.47,-22.67,0,*70
1501358877.17,44069,21.06,74404.5,5.15,-22.53,-22.67,0,*74
1501358878.37,44070,21.06,74406.5,5.15,-22.63,-22.87,0,*71
1501358879.57,44071,21.06,74404.3,5.15,-22.63,-22.93,0,*75
1501358880.8,44072,21.06,74400.3,5.15,-22.53,-22.77,0,*7F
1501358882.07,44073,21.06,74406.5,5.17,-22.47,-22.73,0,*7D
1501358883.3,44074,21.06,74406.8,5.15,-22.53,-22.77,0,*79
1501358884.51,44075,21.06,74404.0,5.15,-22.53,-22.63,0,*7D
1501358885.79,44076,21.06,74406.8,5.17,-22.47,-22.77,0,*7C
1501358887.02,44077,21.06,74404.5,5.15,-22.53,-22.77,0,*7A
1501358888.27,44078,21.06,74402.8,5.17,-22.37,-22.47,0,*76
1501358889.51,44079,21.06,74400.3,5.15,-22.47,-22.63,0,*74
1501358890.71,44080,21.06,74406.0,5.15,-22.67,-22.93,0,*7F
1501358891.93,44081,21.06,74406.8,5.15,-22.63,-22.77,0,*70
1501358893.19,44082,21.06,74400.8,5.15,-22.17,-22.31,0,*72
1501358894.41,44083,21.06,74398.0,5.15,-22.31,-22.53,0,*73
1501358895.63,44084,21.06,74400.0,5.15,-22.31,-22.41,0,*77
1501358896.86,44085,21.06,74402.5,5.15,-22.47,-22.63,0,*77
1501358898.07,44086,21.06,74402.8,5.15,-22.53,-22.63,0,*71
1501358899.33,44087,21.06,74402.0,5.15,-22.47,-22.77,0,*70